
10:23:36 PM 611 Monday, June 22, 2020  Message :- Start Log.....!!!

windowsName : Windows 10 Home
version : 6.3
build : 19042
Product ID : 1814
64 Bit operating system? : Yes
===========================================Start==========================================
Caption : Intel64 Family 6 Model 142 Stepping 9
CreationClassName : Win32_Processor
CurrentClockSpeed : 2900
CurrentVoltage : 8
Manufacturer : GenuineIntel
MaxClockSpeed : 2901
Name : Intel(R) Core(TM) i7-7500U CPU @ 2.70GHz
NumberOfCores : 2
NumberOfLogicalProcessors : 4
PowerManagementSupported : False
Status : OK
=========================================END============================================

15:15:53 574 11 October 2021  Message :- Save call Start

15:15:54 176 11 October 2021  Message :- Zip Start AD

15:15:54 398 11 October 2021  Message :- Zip End

15:15:56 811 11 October 2021  Message :- get Download paramenter 1st time

15:15:57 322 11 October 2021  Message :- start vishal task

15:15:58 114 11 October 2021  Message :- end vishal task

15:15:58 134 11 October 2021  Message :- first time download

15:15:58 218 11 October 2021  Message :-  Done version

15:15:58 219 11 October 2021  Message :-  start Port

15:15:58 219 11 October 2021  Message :-  Got Port

15:15:58 219 11 October 2021  Message :- start opening port

15:15:58 220 11 October 2021  Message :- port open 

15:15:58 220 11 October 2021  Message :- Done ctor, start event instialize

15:15:58 220 11 October 2021  Message :-  open call

15:15:58 227 11 October 2021  Message :- close hota open kela done 

15:15:58 228 11 October 2021  Message :-  open call end ,  start Port Done in PP3 class

15:15:58 250 11 October 2021  Message :-  sent 1st

15:15:58 465 11 October 2021  Message :-  Got 1

15:15:58 592 11 October 2021  Message :-  started sending Application

15:15:58 594 11 October 2021  Message :- Start 0%

15:15:58 595 11 October 2021  Message :- Zip file code started.

15:15:58 604 11 October 2021  Message :- 1st response 221

15:15:58 671 11 October 2021  Message :- 2nd response 221

15:15:58 957 11 October 2021  Message :- Project response 221 Completed :) 

15:15:58 982 11 October 2021  Message :- port Exist and it is Closed

15:15:58 983 11 October 2021  Message :- End 100%

15:21:24 19 11 October 2021  Message :- Save call Start

15:21:24 704 11 October 2021  Message :- Zip Start AD

15:21:24 777 11 October 2021  Message :- Zip End

15:21:26 133 11 October 2021  Message :- get Download paramenter 1st time

15:21:26 618 11 October 2021  Message :- start vishal task

15:21:27 271 11 October 2021  Message :- end vishal task

15:21:27 292 11 October 2021  Message :- first time download

15:21:27 376 11 October 2021  Message :-  Done version

15:21:27 376 11 October 2021  Message :-  start Port

15:21:27 376 11 October 2021  Message :-  Got Port

15:21:27 376 11 October 2021  Message :- start opening port

15:21:27 377 11 October 2021  Message :- port open 

15:21:27 377 11 October 2021  Message :- Done ctor, start event instialize

15:21:27 377 11 October 2021  Message :-  open call

15:21:27 382 11 October 2021  Message :- close hota open kela done 

15:21:27 383 11 October 2021  Message :-  open call end ,  start Port Done in PP3 class

15:21:27 410 11 October 2021  Message :-  sent 1st

15:21:27 623 11 October 2021  Message :-  Got 1

15:21:27 749 11 October 2021  Message :- Start 0%

15:21:27 750 11 October 2021  Message :- Zip file code started.

15:21:27 761 11 October 2021  Message :- 1st response 221

15:21:27 826 11 October 2021  Message :- 2nd response 221

15:21:27 989 11 October 2021  Message :- Project response 221 Completed :) 

15:21:28 10 11 October 2021  Message :- port Exist and it is Closed

15:21:28 11 11 October 2021  Message :- End 100%

15:34:49 201 11 October 2021  Message :- Save call Start

15:34:49 834 11 October 2021  Message :- Zip Start AD

15:34:49 908 11 October 2021  Message :- Zip End

15:34:51 200 11 October 2021  Message :- get Download paramenter 1st time

15:34:51 669 11 October 2021  Message :- start vishal task

15:34:52 222 11 October 2021  Message :- end vishal task

15:34:52 246 11 October 2021  Message :- first time download

15:34:52 327 11 October 2021  Message :-  Done version

15:34:52 327 11 October 2021  Message :-  start Port

15:34:52 327 11 October 2021  Message :-  Got Port

15:34:52 327 11 October 2021  Message :- start opening port

15:34:52 327 11 October 2021  Message :- port open 

15:34:52 328 11 October 2021  Message :- Done ctor, start event instialize

15:34:52 328 11 October 2021  Message :-  open call

15:34:52 332 11 October 2021  Message :- close hota open kela done 

15:34:52 333 11 October 2021  Message :-  open call end ,  start Port Done in PP3 class

15:34:52 356 11 October 2021  Message :-  sent 1st

15:34:52 570 11 October 2021  Message :-  Got 1

15:34:52 695 11 October 2021  Message :- Start 0%

15:34:52 696 11 October 2021  Message :- Zip file code started.

15:34:52 702 11 October 2021  Message :- 1st response 221

15:34:52 771 11 October 2021  Message :- 2nd response 221

15:34:53 64 11 October 2021  Message :- Project response 221 Completed :) 

15:34:53 90 11 October 2021  Message :- port Exist and it is Closed

15:34:53 90 11 October 2021  Message :- End 100%

15:34:59 651 11 October 2021  Message :- Save call Start

15:35:00 304 11 October 2021  Message :- Zip Start AD

15:35:00 379 11 October 2021  Message :- Zip End

15:35:01 593 11 October 2021  Message :- get Download paramenter 1st time

15:35:02 32 11 October 2021  Message :- start vishal task

15:35:02 564 11 October 2021  Message :- end vishal task

15:35:02 587 11 October 2021  Message :- first time download

15:35:02 666 11 October 2021  Message :-  Done version

15:35:02 667 11 October 2021  Message :-  start Port

15:35:02 667 11 October 2021  Message :-  Got Port

15:35:02 667 11 October 2021  Message :- start opening port

15:35:02 667 11 October 2021  Message :- port open 

15:35:02 667 11 October 2021  Message :- Done ctor, start event instialize

15:35:02 667 11 October 2021  Message :-  open call

15:35:02 672 11 October 2021  Message :- close hota open kela done 

15:35:02 673 11 October 2021  Message :-  open call end ,  start Port Done in PP3 class

15:35:02 698 11 October 2021  Message :-  sent 1st

15:35:02 904 11 October 2021  Message :-  Got 1

15:35:03 31 11 October 2021  Message :- Start 0%

15:35:03 33 11 October 2021  Message :- Zip file code started.

15:35:03 36 11 October 2021  Message :- 1st response 221

15:35:03 95 11 October 2021  Message :- 2nd response 221

15:35:03 322 11 October 2021  Message :- Project response 221 Completed :) 

15:35:03 353 11 October 2021  Message :- port Exist and it is Closed

15:35:03 353 11 October 2021  Message :- End 100%

15:36:26 955 11 October 2021  Message :- Save call Start

15:36:27 625 11 October 2021  Message :- Zip Start AD

15:36:27 691 11 October 2021  Message :- Zip End

15:36:29 184 11 October 2021  Message :- get Download paramenter 1st time

15:36:29 675 11 October 2021  Message :- start vishal task

15:36:30 260 11 October 2021  Message :- end vishal task

15:36:30 284 11 October 2021  Message :- first time download

15:36:30 363 11 October 2021  Message :-  Done version

15:36:30 363 11 October 2021  Message :-  start Port

15:36:30 364 11 October 2021  Message :-  Got Port

15:36:30 364 11 October 2021  Message :- start opening port

15:36:30 364 11 October 2021  Message :- port open 

15:36:30 364 11 October 2021  Message :- Done ctor, start event instialize

15:36:30 364 11 October 2021  Message :-  open call

15:36:30 369 11 October 2021  Message :- close hota open kela done 

15:36:30 370 11 October 2021  Message :-  open call end ,  start Port Done in PP3 class

15:36:30 400 11 October 2021  Message :-  sent 1st

15:36:30 616 11 October 2021  Message :-  Got 1

15:36:30 741 11 October 2021  Message :-  started sending Application

15:36:30 742 11 October 2021  Message :- Zip file code started.

15:36:30 750 11 October 2021  Message :- 1st response 221

15:36:30 802 11 October 2021  Message :- 2nd response 221

15:36:31 26 11 October 2021  Message :- Project response 221 Completed :) 

15:36:31 53 11 October 2021  Message :- port Exist and it is Closed

15:36:31 54 11 October 2021  Message :- End 100%

15:37:19 11 11 October 2021  Message :- Save call Start

15:37:19 591 11 October 2021  Message :- Zip Start AD

15:37:19 672 11 October 2021  Message :- Zip End

15:37:20 923 11 October 2021  Message :- get Download paramenter 1st time

15:37:21 357 11 October 2021  Message :- start vishal task

15:37:21 930 11 October 2021  Message :- end vishal task

15:37:21 955 11 October 2021  Message :- first time download

15:37:22 34 11 October 2021  Message :-  Done version

15:37:22 34 11 October 2021  Message :-  start Port

15:37:22 35 11 October 2021  Message :-  Got Port

15:37:22 35 11 October 2021  Message :- start opening port

15:37:22 35 11 October 2021  Message :- port open 

15:37:22 35 11 October 2021  Message :- Done ctor, start event instialize

15:37:22 35 11 October 2021  Message :-  open call

15:37:22 40 11 October 2021  Message :- close hota open kela done 

15:37:22 41 11 October 2021  Message :-  open call end ,  start Port Done in PP3 class

15:37:22 73 11 October 2021  Message :-  sent 1st

15:37:22 287 11 October 2021  Message :-  Got 1

15:37:22 413 11 October 2021  Message :-  started sending Application

15:37:22 415 11 October 2021  Message :- Zip file code started.

15:37:22 422 11 October 2021  Message :- 1st response 221

15:37:22 476 11 October 2021  Message :- 2nd response 221

15:37:22 706 11 October 2021  Message :- Project response 221 Completed :) 

15:37:22 733 11 October 2021  Message :- port Exist and it is Closed

15:37:22 733 11 October 2021  Message :- End 100%
